ASTRA 2D

Last updated on Jan. 29, 2020, 4:37 a.m. UTC

1 26638U 00081A   20028.79096647  .00000140  00000-0  00000-0 0  9999
2 26638   5.5095  65.4507 0001958 235.8524 133.0779  1.00532470 29531
UTC
Height (km)
Latitude
Longitude
Inclination
Orbital Period
UTC large
Height (km)
Speed (km/s)
/
Latitude / Longitude
Inclination (degrees)
Orbital Period (minutes)
Azimuth
Elevation
Range (km)
Doppler Factor
iOS Compass Heading
iOS Angle

Next 30 passes for location: Hong Kong

Rise time Rise Azimuth (degrees) Set time Set Azimuth (degrees) Duration Max altitude (degrees)

No matching passes for this satellites